Starlink 36193

operational
NORAD ID: 67099 Int'l Des: 2025-298 Owner: SPXS Country: US Constellation: starlink
LEOCIRCULAR

关于 Starlink 36193

正在加载描述...

实时位置

正在加载3D地球...

即将过境

高度历史

Altitude vs Time

uPlot chart will show altitude changes over time

两行轨道根数

1 67099C 25298AA 25349.42548611 -.00267720 00000+0 -38843-3 0 3494
2 67099 70.0016 243.0033 0007032 270.6411 206.4188 16.05243582 11
Epoch: Dec 15, 2025 • Age: 95 hours

当前状态

高度 279.9 km
速度 7.74 km/s
星下点 64.21°N, 156.69°W
发射日期 Dec 14, 2025
运行时间 4 days
类型 internet

技术详情

分类 Payload
质量 575.00 kg
干质量 530.00 kg
总质量 575.00 kg
长度 0.30 m
直径 4.10 m
跨度 29.00 m
形状 Box + pan
制造商 SPXS
平台类型 Starlink V2MO
阶段状态 In Orbit
所有者/国家 SPXS/US

大型星座

Loading constellations...